COSMOS 2251 DEB, 33791

Orbit data source: Space-Track

COSMOS 2251 DEB, 33791 is space debris in LEO originally from a launch on Wed, 16 Jun 1993 UTC launched from the Plesetsk Missile And Space Complex (PKMTR). The debris from Iridium 33, an American commercial communications satellite, has been tracked extensively since its accidental collision with the defunct Russian satellite Cosmos 2251 in 2009. This event, occurring at high speed in low Earth orbit (LEO), generated thousands of pieces of space debris, significantly increasing the risk of further collisions. The Iridium 33 debris cloud has impacted space traffic management and orbital debris mitigation strategies, making it a subject of ongoing study in space situational awareness.

Loading next visibility...
Identifier
33791, 1993-036AG
Orbit
LEO
Country
Flag of CISCIS
Related business
Manufacturer
Unknown
Mission
Spacecraft
Bus & Motor
Unknown
Mass
Unknown
Launch date (UTC)
1993-06-16 (33 years ago)
Launch vehicle
Unknown
Launch site
Plesetsk Missile And Space Complex (PKMTR)
Object type
Payload
Rocket body
Debris
Shape & HBR
Unknown shape, 0.3 m
Radar Cross Section
Medium (>0.1 m² and <1 m²)

Expand to show TLE details & history
Last TLE update: 6 hours ago

TLE from 6 hours ago
0 COSMOS 2251 DEB
1 33791U 93036AG  26121.31210023  .00001044  00000-0  31210-3 0  9997
2 33791  74.1721 140.3830 0030962 291.4654  83.6767 14.43860243900660
Epoch: 2026-05-01T07:29Z
TLE epoch observation values (Epoch: 2026-05-01T07:29:25.459Z)
Latitude
14.87372°
Longitude
173.07572°
Altitude
745.327 km
Speed
7.485 km/s
True Right ascension
09h 38m 42s
True Declination
14° 47' 19"
Sunlit
Object was in daylight at epoch
Visualization orbit readout
Latitude
Unknown
Longitude
Unknown
Altitude
Unknown
Speed
Unknown
Apparent Right ascension
Unknown
Apparent Declination
Unknown
Sunlit
N/A
Visualization observer readout
Local Sidereal Time
20:54:08
Azimuth
Unknown
Elevation
Unknown
Doppler factor
Unknown
Orbital elements
Apogee altitude
765.426 km
Perigee altitude
721.327 km
Semi-major axis
7,121.513 km
Eccentricity
0.0031
Inclination
74.1721°
RAAN
140.383°
Arg. of periapsis
291.4654°
True anomaly
84.02949°
Mean anomaly
83.6767°
Eccentric anomaly
83.85308°
Mean motion
3.61148 °/min
Orbital period
99.68 mins
BSTAR
0.0003121
Loading maneuver chart data...
Computing Atmospheric mass density...
Loading historical data...
Loading historical data...
Loading historical data...
Loading historical data...
Loading historical data...
Loading historical data...
Loading historical data...

Documentation

Showing up to 5 results
|